Flag for Vatican City State Weather past 2 weeks in Vatican City, Vatican City State

Now
43 °F

Clear.


Feels Like: 43 °F
Forecast: 39 / 56 °F
Wind: No wind

Location: Rome / Ciampino

Current Time: Dec 22, 2014 at 11:43:50 PM

Latest Report: Dec 22, 2014 at 10:45 PM


Visibility: 10 mi

Pressure: 30.45 "Hg

Humidity: 93%

Dew point: 41 °F

Location of Vatican CityLocation

Historic Weather in Vatican City — Graph

°F

Vatican City temperature yesterday

Maximum temperature yesterday: 57 °F (at 2:45 PM)
Minimum temperature yesterday: 43 °F (at 3:45 AM)
Average temperature yesterday: 49 °F

Past Weeks' High & Low Weather Summary

 TemperatureHumidityPressure
High63 °F (Dec 13, 1:15 PM)100% (Dec 9, 4:45 AM)30.48 "Hg (Dec 9, 4:45 AM)
Low34 °F (Dec 12, 6:15 AM)42% (Dec 9, 2:45 PM)29.68 "Hg (Dec 16, 3:15 PM)
Average49 °F80%30.07 "Hg
* Reported Dec 7 10:15 PM — Dec 22 10:45 PM, Vatican City, Weather by CustomWeather, © 2014

Note: Actual official high and low records may vary slightly from our data, if they occured in-between our weather recording intervals... More about our weather records

Advertising

Vatican City weather history for previous 24 hours

 ConditionsComfort  
Time TempWeatherWind HumidityBarometerVisibility
10:45 PM
Dec 22
43 °FClear.No wind93%30.45 "Hg10 mi
10:15 PM43 °FClear.No wind93%30.45 "Hg10 mi
9:45 PM45 °FClear.2 mph87%30.45 "Hg10 mi
9:15 PM45 °FClear.No wind93%30.45 "Hg10 mi
8:45 PM46 °FClear.No wind87%30.45 "Hg10 mi
8:15 PM46 °FClear.1 mph87%30.45 "Hg10 mi
7:45 PM46 °FClear.No wind87%30.42 "Hg10 mi
7:15 PM46 °FClear.No wind87%30.42 "Hg10 mi
6:45 PM48 °FClear.No wind87%30.42 "Hg10 mi
6:15 PM48 °FClear.No wind87%30.42 "Hg10 mi
5:45 PM50 °FClear.No wind82%30.42 "Hg10 mi
5:15 PM52 °FClear.No wind72%30.42 "Hg10 mi
4:45 PM55 °FClear.No wind63%30.42 "Hg10 mi
4:15 PM57 °FSunny.1 mph63%30.42 "Hg10 mi
3:45 PM59 °FPassing clouds.No wind55%30.42 "HgN/A
3:15 PM59 °FPassing clouds.5 mph51%30.42 "HgN/A
2:45 PM59 °FPassing clouds.3 mph48%30.42 "HgN/A
2:15 PM59 °FPassing clouds.3 mph48%30.42 "HgN/A
1:45 PM59 °FPassing clouds.3 mph48%30.42 "HgN/A
1:15 PM59 °FPassing clouds.1 mph48%30.45 "HgN/A
12:45 PM57 °FPassing clouds.No wind51%30.45 "HgN/A
12:15 PM55 °FPassing clouds.No wind59%30.45 "HgN/A
11:45 AM54 °FSunny.1 mph72%30.45 "Hg10 mi
11:15 AM52 °FSunny.No wind72%30.48 "Hg10 mi
10:45 AM50 °FSunny.No wind82%30.48 "Hg10 mi
10:15 AM48 °FSunny.No wind87%30.48 "Hg10 mi
9:45 AM46 °FSunny.No wind82%30.45 "Hg10 mi
9:15 AM45 °FSunny.1 mph93%30.45 "Hg10 mi
8:45 AM41 °FSunny.No wind93%30.45 "Hg10 mi
8:15 AM41 °FPassing clouds.No wind93%30.45 "HgN/A
7:45 AM41 °FPassing clouds.1 mph87%30.45 "HgN/A
7:15 AM39 °FPassing clouds.1 mph93%30.45 "HgN/A
6:45 AM39 °FPassing clouds.2 mph87%30.45 "HgN/A
6:15 AM39 °FPassing clouds.No wind87%30.42 "HgN/A
5:45 AM41 °FPassing clouds.No wind81%30.42 "HgN/A
5:15 AM41 °FClear.No wind81%30.42 "Hg10 mi
4:45 AM41 °FClear.No wind81%30.42 "Hg10 mi
4:15 AM41 °FClear.No wind81%30.42 "Hg10 mi
3:45 AM45 °FClear.No wind71%30.42 "Hg10 mi
3:15 AM45 °FClear.No wind66%30.45 "Hg10 mi
2:45 AM45 °FClear.No wind71%30.45 "Hg10 mi
2:15 AM45 °FClear.No wind71%30.45 "Hg10 mi
1:45 AM45 °FClear.No wind71%30.45 "Hg10 mi
1:15 AM48 °FPassing clouds.1 mph66%30.45 "HgN/A
12:15 AM48 °FPassing clouds.No wind71%30.45 "HgN/A
11:45 PM
Dec 21
48 °FPassing clouds.2 mph76%30.42 "HgN/A
11:15 PM48 °FPassing clouds.3 mph82%30.42 "HgN/A
Weather by CustomWeather, © 2014

See weather overviewHow to use our weather pages